User: anonymous   Login
Location: Unspecified
(0.0000°N, 0.0000°E)
Time: 21:44:40
(UTC+00:00)
Language:

GONETS M 06 - Orbit

View from above orbital plane
View from above orbital plane
View from above satellite
View from above satellite

Ground track
Ground track

The orbit data is extracted from the following two-line orbital elements,

1 39250U 13048B   17117.71829967 +.00000010 +00000-0 +00000-0 0  9992
2 39250 082.4824 264.2937 0017623 325.0663 034.9253 12.42916400164440
Epoch (UTC): 27 April 2017 17:14:21
Eccentricity: 0.0017623
inclination: 82.4824°
perigee height: 1480 km
apogee height: 1508 km
right ascension of ascending node: 264.2937°
argument of perigee: 325.0663°
revolutions per day: 12.42916400
mean anomaly at epoch: 34.9253°
orbit number at epoch: 16444

The dashed part of the orbit path shows where the satellite is in the earth's shadow,  

DLR